Theta_e
302 296 293 293 296 296 297 297 296 294 296 295 296 295 293 294 294 292 293 295 294 295 296 297 297 297 298 299 301 303 301 300 300 300 302 303 304 305 305 304 305 306 306 313 309 308 308 307 307 308 310 315 319 321 322 322 324 325 326 326 326 327 328 328 329 329 330 329 329 331 330 329 331 332 333 332 333 332 333 332 332 332 331 327 325 325
299 295 295 297 297 297 296 293 294 294 295 295 293 293 291 294 293 293 294 294 295 294 296 293 295 296 298 300 301 302 301 300 301 302 303 304 305 305 306 306 307 308 309 308 305 305 306 306 307 306 307 309 312 316 319 321 322 324 324 325 326 326 326 327 327 328 328 330 329 327 328 329 330 331 331 331 332 332 333 334 332 331 329 327 325 323
296 294 297 297 293 293 292 293 294 295 294 294 294 293 293 292 293 292 293 294 295 294 296 295 295 297 299 301 302 302 301 303 304 304 305 305 305 305 305 305 306 307 307 307 306 307 305 307 307 306 306 308 310 313 317 320 321 322 323 324 325 325 325 325 326 327 327 329 330 329 328 328 329 332 332 333 332 332 332 332 332 332 331 329 327 325
292 296 297 294 294 294 292 292 294 294 296 295 294 292 291 295 291 290 292 294 293 294 296 296 294 297 300 301 301 303 303 303 303 302 302 303 303 304 305 306 306 305 306 306 307 306 305 305 304 305 306 307 309 311 314 316 319 321 322 323 324 324 324 324 325 324 327 328 330 330 330 329 329 328 329 330 330 331 331 331 332 331 332 332 330 328
294 292 291 293 295 296 293 293 294 294 292 294 297 296 294 290 292 293 292 292 291 291 292 294 295 296 299 298 299 299 294 293 297 298 298 300 302 303 305 303 304 302 304 305 306 307 305 303 302 303 305 308 307 309 311 315 316 318 320 322 323 323 323 323 324 324 326 326 325 323 322 324 323 323 325 324 323 325 326 328 329 329 329 329 329 329
293 291 291 292 294 296 295 291 295 297 293 293 295 296 295 296 293 291 293 294 294 294 292 292 290 291 295 296 296 299 297 297 296 296 300 302 302 301 299 301 304 305 305 305 306 307 305 303 303 303 304 307 308 309 312 314 316 318 319 321 322 322 322 322 323 323 324 323 322 320 320 319 320 320 319 320 322 321 322 323 328 329 328 327 326 326
293 289 292 294 294 296 296 294 296 297 294 291 293 296 295 295 296 295 294 295 290 288 292 290 289 288 297 296 298 296 296 298 298 296 299 301 301 299 300 302 302 303 304 303 303 303 303 303 303 303 304 306 308 310 313 314 315 317 319 320 321 322 322 322 322 323 321 321 321 321 321 322 321 320 321 324 325 325 326 326 327 326 326 327 327 326
291 290 291 295 295 295 294 292 295 296 293 291 293 293 296 296 296 296 296 296 292 292 292 291 293 288 289 296 298 293 294 297 299 299 299 300 298 298 299 300 301 303 302 303 305 304 304 304 304 304 306 307 309 311 312 313 315 316 318 319 320 321 321 321 321 321 321 320 321 321 321 321 321 321 321 323 324 326 326 325 325 324 324 325 325 325
292 290 293 293 295 292 293 295 297 298 295 293 288 294 296 297 297 296 296 292 292 291 289 291 295 288 288 294 294 293 295 297 298 300 301 298 299 299 300 301 302 302 301 299 302 305 305 305 303 303 306 309 310 312 313 314 315 317 318 318 319 320 320 320 319 319 319 320 321 320 320 320 321 322 323 323 324 323 324 322 322 322 323 323 323 324
294 294 294 296 294 292 293 288 292 297 295 291 291 293 292 293 294 296 293 293 291 289 286 290 291 287 288 297 296 294 293 295 298 300 299 299 299 300 301 303 304 303 302 301 298 301 304 305 305 305 307 308 310 311 313 314 315 316 316 317 317 317 318 318 318 318 319 320 320 320 320 319 320 320 320 320 320 321 321 320 320 320 320 321 321 321
293 294 294 293 294 295 291 291 292 293 295 293 295 296 295 295 294 293 293 291 289 285 287 286 286 287 285 294 294 295 296 297 298 298 298 300 301 300 301 302 304 304 304 304 302 301 304 303 304 305 308 308 307 309 311 313 314 314 315 316 316 317 317 316 316 317 318 319 319 319 320 319 320 320 318 317 317 316 316 317 318 319 320 320 320 320
294 295 295 294 291 293 296 294 293 293 294 297 296 294 293 292 294 292 290 291 285 284 284 284 286 287 283 290 296 297 294 292 295 297 298 300 300 300 302 301 302 302 304 304 306 306 305 305 305 306 307 308 308 309 311 312 313 314 315 316 316 314 315 315 315 315 316 316 317 318 319 319 319 319 317 317 318 318 317 317 317 318 318 318 318 318
292 293 293 294 294 293 296 294 292 293 294 295 295 294 289 286 287 283 287 282 283 284 285 285 286 285 285 292 296 295 295 295 294 296 299 299 299 300 301 302 300 302 304 306 306 306 306 308 307 308 308 308 309 310 310 311 313 314 314 315 314 313 315 315 314 314 315 315 316 316 317 318 318 318 318 318 318 319 318 317 317 317 316 316 316 316
291 293 293 294 295 295 297 292 289 289 293 293 292 291 287 283 281 280 282 281 282 284 284 285 288 283 291 294 297 297 299 296 295 296 298 298 299 299 301 301 300 303 304 305 306 307 307 308 308 309 308 310 310 310 310 310 311 312 313 314 315 312 313 313 314 315 315 315 316 316 317 317 317 316 316 317 316 317 317 316 316 315 315 315 315 315
284 285 291 293 290 297 293 295 294 294 292 293 297 294 289 288 283 278 281 279 282 284 283 285 283 286 287 292 294 296 296 294 295 293 294 295 296 297 298 298 299 301 305 306 306 307 307 307 307 308 309 309 310 309 309 310 311 311 312 312 314 311 311 311 312 314 314 314 315 315 316 316 316 315 315 315 315 315 315 315 314 314 314 314 314 314
289 288 289 291 291 291 295 294 295 295 292 292 291 293 289 288 293 285 283 284 281 282 282 282 285 291 293 297 296 297 295 295 295 294 294 295 297 297 298 301 303 304 305 305 306 305 305 306 305 306 307 308 308 308 309 309 310 311 312 312 313 312 310 311 311 311 313 313 313 313 313 313 313 313 313 313 313 312 313 313 313 312 313 313 313 314
287 286 291 294 292 293 294 292 294 296 287 291 289 287 290 293 288 279 279 280 279 282 282 288 287 292 295 295 298 297 293 296 294 294 293 295 297 297 299 303 304 305 306 306 306 305 305 304 304 305 306 306 306 307 308 309 309 311 310 310 310 309 309 310 310 311 311 312 311 311 311 311 311 311 311 312 312 312 312 311 311 311 312 312 312 312
288 286 289 291 291 293 292 291 294 291 293 291 286 291 290 293 295 289 282 281 282 280 283 283 284 287 287 286 297 294 294 295 296 295 295 296 296 296 301 305 305 306 306 306 305 304 304 304 304 303 303 304 306 308 308 307 307 308 310 310 310 309 309 308 308 308 309 309 309 309 309 309 310 310 310 310 310 311 310 310 310 310 310 310 311 310
295 284 288 288 291 294 292 294 294 294 293 294 293 297 291 285 285 285 286 278 279 278 282 283 283 284 288 290 294 293 293 297 296 295 295 296 297 299 302 304 305 305 305 304 304 304 303 303 303 303 303 302 302 303 305 305 305 306 306 307 309 309 309 308 308 307 307 308 308 309 309 309 308 308 308 309 308 308 308 308 309 309 309 310 310 309
295 288 285 291 291 292 294 294 288 291 294 293 292 291 291 291 290 285 285 286 286 282 279 282 280 284 290 291 293 294 296 298 297 295 295 298 299 300 302 304 303 303 305 305 305 305 304 304 303 303 302 302 302 302 302 303 304 305 305 305 306 305 305 304 305 305 306 306 307 307 306 306 307 307 307 307 307 307 307 307 308 308 308 308 308 308
289 292 285 289 292 291 288 291 290 292 288 288 289 288 292 288 291 291 287 285 285 282 281 282 281 285 293 294 294 295 296 295 295 296 298 299 300 300 302 304 304 305 306 306 305 304 304 303 302 301 300 300 299 299 300 302 303 304 303 304 305 305 304 305 305 305 306 306 305 305 305 306 305 305 305 305 305 305 306 306 306 306 307 307 306 306
288 286 286 286 287 287 291 291 290 293 294 291 290 288 291 286 285 283 282 284 282 284 279 278 280 288 296 290 294 295 296 295 294 296 298 298 298 298 300 301 304 305 306 306 305 304 304 303 302 300 298 297 298 298 298 300 301 301 303 303 304 304 305 304 304 305 304 304 305 304 305 304 304 304 304 304 304 304 304 304 305 305 304 304 304 304
293 290 288 285 288 289 290 291 288 288 289 291 290 291 295 292 291 287 282 283 282 281 282 283 279 285 296 291 292 294 293 292 290 291 294 296 298 297 298 298 297 299 303 305 304 303 303 304 302 300 299 299 299 299 298 299 301 301 301 301 302 303 301 303 303 303 304 304 304 303 303 302 302 301 301 302 302 302 302 303 303 303 302 302 303 303
292 288 286 284 287 289 290 289 289 287 291 292 291 291 292 289 292 291 289 287 286 280 282 283 279 286 295 292 289 288 287 287 288 288 292 294 295 296 297 299 298 297 298 300 299 300 302 301 299 299 299 299 299 299 299 300 300 300 300 300 301 300 300 300 301 301 302 302 301 301 301 300 299 300 300 301 301 301 301 301 301 300 300 301 301 301
288 287 288 283 283 285 287 290 290 292 292 290 291 292 292 292 290 287 287 287 286 283 285 284 279 286 294 293 291 290 291 292 294 293 291 293 296 299 301 302 301 301 301 299 300 301 300 299 299 301 301 300 299 299 299 300 299 299 299 299 299 298 298 298 299 300 300 301 300 300 301 300 300 300 300 300 300 299 299 299 298 298 298 299 299 299
290 288 287 282 279 277 277 279 282 285 288 291 286 287 291 292 290 287 285 285 284 284 284 284 285 291 290 292 293 295 293 295 296 296 293 294 298 302 302 302 301 301 301 301 302 301 301 302 300 298 298 298 298 298 298 298 297 297 297 296 297 298 298 298 299 298 298 299 300 299 299 299 299 298 298 298 298 298 298 297 297 297 298 298 298 298
287 287 289 288 286 284 286 289 293 294 290 286 289 289 289 291 292 292 289 286 283 286 282 287 289 291 288 292 292 295 292 295 297 296 295 295 295 296 299 300 300 300 301 301 302 303 301 299 298 299 298 298 297 297 297 297 297 296 296 295 295 296 297 297 298 298 298 298 298 298 297 297 297 297 297 297 297 297 296 296 296 296 296 297 296 296
287 286 288 290 290 291 293 292 293 294 291 291 290 288 290 290 289 288 287 286 290 285 282 289 291 288 291 293 294 296 296 296 297 299 299 299 300 300 300 298 295 297 298 300 300 300 300 301 300 298 297 296 296 296 296 296 296 296 296 296 295 295 296 297 297 297 296 296 296 296 296 295 295 295 296 296 295 295 295 295 296 296 296 296 296 296
289 287 290 290 289 293 293 292 293 294 293 293 292 291 289 290 289 286 288 292 291 286 285 291 291 289 291 294 295 297 298 297 298 298 298 299 299 298 296 295 296 297 297 297 299 300 302 302 301 299 297 297 296 296 295 295 294 294 294 294 294 295 295 295 296 295 295 295 295 294 294 294 294 294 294 294 294 294 294 294 295 295 295 295 295 296
290 288 291 291 288 291 290 291 291 293 291 291 292 292 291 290 289 291 291 293 292 290 293 293 293 293 295 295 296 297 299 299 297 296 296 297 298 298 297 297 298 298 298 298 299 300 302 303 301 299 298 296 296 295 295 295 294 295 294 294 294 294 294 295 294 294 293 293 293 293 293 292 292 293 293 293 293 293 293 293 293 294 294 294 294 294
291 287 290 288 286 287 290 290 290 291 291 288 290 292 291 291 290 291 292 293 293 292 293 293 292 292 297 298 297 298 297 295 296 296 297 299 300 298 297 297 299 299 299 299 300 300 301 301 299 298 297 296 296 295 295 294 294 293 293 293 293 293 293 294 293 292 292 292 292 292 292 292 292 292 292 292 292 292 292 292 293 293 292 293 293 293
291 287 288 287 285 285 287 286 287 287 287 286 286 288 289 289 287 289 289 293 292 289 291 290 289 290 296 299 297 296 295 295 296 298 297 298 299 298 298 299 299 300 300 300 300 300 299 298 297 297 296 296 295 295 294 293 293 293 292 292 292 292 292 292 292 291 291 291 291 291 291 291 291 291 291 291 291 291 291 291 291 291 292 292 291 292
289 288 286 286 284 284 287 287 285 285 285 282 283 287 290 290 291 292 293 294 294 295 289 287 289 295 296 296 294 293 295 296 296 298 299 299 300 299 299 300 300 300 300 300 300 298 298 297 297 297 296 295 294 293 293 293 293 293 292 292 292 291 291 291 291 291 290 290 290 290 290 290 290 290 290 289 289 290 290 288 289 289 289 290 291 292
289 290 288 289 284 285 280 283 285 283 277 279 291 294 293 290 291 290 290 292 294 295 293 295 296 298 295 295 294 294 294 296 298 300 302 302 301 298 298 299 300 300 301 301 300 298 298 297 296 295 295 294 293 293 293 293 293 292 292 291 291 290 290 290 290 290 289 289 289 289 290 289 289 289 289 288 288 289 288 288 288 289 290 289 290 290
287 287 288 287 285 282 281 283 281 276 278 291 296 297 295 294 294 293 293 294 294 295 295 295 296 296 297 297 297 298 297 298 298 298 298 297 301 301 298 297 298 299 300 299 298 298 297 297 295 294 292 292 292 291 291 291 291 290 290 290 289 290 289 290 289 289 289 289 289 289 288 289 288 288 288 288 287 287 287 287 287 287 288 288 289 288
288 288 287 284 286 282 279 282 275 277 287 292 291 293 296 295 294 293 291 294 295 295 295 294 295 296 298 298 297 296 297 296 295 295 295 297 298 301 300 299 299 299 299 299 299 298 297 295 294 293 292 291 290 290 291 290 290 290 289 289 289 288 288 288 288 288 288 288 288 287 288 287 288 287 287 286 286 286 286 286 286 286 287 287 288 288
292 290 289 284 285 281 281 281 281 287 285 288 290 288 291 289 290 289 286 290 295 295 295 294 295 296 297 298 296 293 294 296 296 298 299 298 298 297 298 299 300 299 299 300 299 299 297 296 294 293 291 290 290 290 290 289 289 289 288 287 287 287 287 287 287 286 286 286 286 286 286 286 286 286 285 285 285 285 285 285 285 286 287 286 287 287
293 288 289 286 282 286 282 278 279 280 278 285 293 295 295 297 296 296 291 288 296 296 297 296 295 296 297 296 292 294 295 294 291 294 299 299 298 298 297 298 296 295 296 296 295 296 295 293 292 290 290 289 289 289 289 288 288 287 286 286 286 286 285 285 285 285 285 285 285 285 286 285 285 284 284 284 284 284 285 285 285 286 286 285 285 286
290 293 291 288 286 283 281 280 279 277 281 289 291 291 295 296 296 296 289 285 294 297 297 296 295 297 297 295 292 293 293 289 291 296 300 300 299 299 298 298 295 295 295 295 294 292 291 290 289 288 288 288 287 287 287 287 286 286 285 285 284 284 284 284 283 283 283 284 284 284 284 284 284 283 283 283 283 283 283 284 284 285 285 285 285 285
287 288 288 285 284 284 282 281 279 282 283 289 290 291 292 295 297 291 280 282 293 296 297 296 295 296 297 297 294 294 292 290 291 297 299 298 298 299 299 298 294 292 290 290 290 290 288 287 286 286 287 286 286 286 286 286 285 284 284 283 283 283 282 281 282 282 282 283 283 283 282 282 282 282 282 282 282 282 283 283 283 283 283 284 285 285
285 285 286 283 284 285 284 283 285 285 289 291 290 291 292 297 294 284 279 289 295 294 294 296 296 297 298 295 294 292 295 297 299 295 290 293 292 291 290 291 291 291 289 288 287 286 286 287 287 286 285 285 285 285 285 284 284 283 282 282 281 280 279 279 280 280 281 281 281 281 280 281 280 280 280 281 280 281 281 282 282 282 282 282 284 284
285 286 286 286 284 283 285 282 283 287 292 295 291 292 294 292 284 283 293 293 294 293 294 296 296 297 297 296 295 296 298 299 297 289 292 291 292 289 288 287 287 287 287 287 286 286 285 284 283 283 283 283 284 284 284 283 282 281 280 279 278 277 277 277 278 278 279 279 278 278 278 278 279 279 279 279 279 279 279 281 281 281 281 282 283 282
285 284 282 283 285 286 285 282 282 278 288 293 290 289 293 288 290 296 294 291 290 293 293 293 296 296 296 295 296 296 297 297 294 293 291 290 288 287 286 287 286 285 284 284 284 284 283 282 282 281 281 282 282 283 283 282 280 278 278 276 275 275 275 275 275 276 277 276 276 276 276 277 277 277 278 278 278 278 278 280 280 280 281 281 282 282
292 285 285 286 288 282 282 280 282 289 293 293 295 289 291 294 294 293 297 295 291 292 294 295 294 296 296 296 295 295 296 295 291 289 288 287 287 286 286 286 286 285 284 284 284 283 282 281 280 279 279 280 280 281 280 280 277 276 275 273 273 272 272 272 273 274 275 274 274 275 275 275 276 277 277 277 277 278 279 278 279 280 281 280 281 283
292 289 291 286 291 288 286 289 292 293 294 294 296 294 296 295 290 292 293 296 296 294 291 294 294 293 293 294 295 294 293 293 292 289 289 287 286 286 285 285 285 284 283 282 282 281 281 280 278 278 278 278 278 277 276 276 275 274 272 271 270 269 269 270 271 273 272 272 273 273 274 274 276 276 276 276 276 276 277 277 278 279 280 280 281 281
291 291 288 292 290 293 292 292 293 291 292 292 291 290 290 290 289 289 294 295 293 293 291 294 293 293 291 291 292 291 293 292 289 288 287 286 285 285 285 284 283 283 282 281 280 280 279 278 277 277 276 275 274 273 272 272 272 270 269 268 267 267 268 269 271 271 271 271 272 272 273 274 275 274 274 274 275 275 276 276 277 278 279 280 280 280
288 288 288 289 289 289 286 290 291 291 289 287 290 288 286 286 290 289 291 293 293 291 291 290 292 292 292 290 291 292 291 289 289 287 286 285 284 284 283 283 282 282 281 280 279 278 277 277 276 275 275 273 273 271 270 268 268 268 267 266 266 266 267 269 269 269 270 270 270 271 272 272 272 272 273 273 274 275 276 276 277 277 278 279 279 279
287 291 290 288 288 288 288 291 288 287 290 289 290 291 292 291 289 288 291 292 292 291 291 291 290 289 289 289 291 291 289 289 288 286 285 285 283 282 281 281 280 280 280 279 279 278 277 277 275 274 273 272 272 270 268 267 266 265 265 265 265 264 266 267 268 268 268 268 269 270 271 271 271 272 272 273 273 273 274 275 276 276 277 277 278 278
289 289 287 288 288 288 290 290 289 289 290 289 288 289 293 293 291 289 287 287 287 287 286 286 288 290 290 291 291 291 288 287 288 287 285 284 282 281 280 279 279 279 278 277 277 277 277 275 274 274 273 272 271 269 267 265 265 264 264 264 264 264 265 266 266 267 267 267 268 269 270 270 271 271 271 271 272 273 274 274 275 276 277 279 279 279
289 287 288 288 286 287 288 291 290 289 290 292 288 288 289 290 290 289 287 286 286 287 287 287 285 285 288 290 290 290 288 287 287 286 284 283 282 280 279 278 277 277 277 277 277 277 275 274 273 272 272 271 270 267 266 264 264 263 263 263 263 263 263 265 265 266 266 267 268 269 269 270 270 271 271 271 271 271 272 274 275 276 277 277 279 280
288 288 288 286 287 287 292 292 289 295 294 293 295 291 289 288 288 288 287 288 287 289 288 288 286 285 286 287 289 289 289 287 286 286 284 283 280 279 278 277 276 276 275 275 275 274 274 273 272 271 271 270 268 266 265 263 263 263 262 262 263 263 263 264 265 266 266 266 267 268 268 269 270 270 270 270 270 270 271 272 275 276 276 277 278 278
Wind_Speed
2 7 8 9 9 8 9 7 2 2 3 5 4 3 3 5 2 2 2 3 2 2 10 9 10 10 10 10 11 8 3 6 8 10 9 8 7 7 7 8 9 9 11 2 2 4 6 7 7 7 8 9 10 10 11 12 13 13 13 12 13 12 13 12 11 11 11 12 12 10 9 8 9 9 9 8 7 6 6 8 9 8 7 6 7 6
2 7 9 6 6 9 6 6 7 7 2 8 6 5 3 3 4 2 2 2 0 4 2 2 5 12 14 12 12 11 7 12 11 11 11 11 9 7 8 8 9 10 4 3 5 6 6 6 6 6 6 8 11 12 13 14 14 13 13 13 12 10 12 13 13 11 10 9 12 12 12 10 6 6 8 10 10 10 7 7 7 7 8 8 8 8
7 11 5 5 5 9 6 4 2 5 6 2 5 4 3 4 2 2 2 1 1 1 4 2 6 10 11 10 10 10 11 10 9 10 11 8 8 7 6 8 8 6 8 5 7 5 5 6 6 6 7 8 10 9 12 12 11 12 12 12 11 10 10 12 13 12 13 11 9 11 10 9 8 7 7 8 9 9 9 9 8 7 7 8 8 9
6 9 3 5 8 10 4 2 6 6 3 4 4 5 6 3 6 4 2 2 2 2 2 2 6 9 10 9 11 11 11 8 5 7 9 6 9 10 9 6 6 8 8 9 6 6 6 5 6 6 7 8 7 7 8 10 12 10 10 11 11 11 11 10 12 11 12 11 8 8 7 7 8 6 6 8 8 9 9 10 8 8 8 9 9 9
4 3 3 7 7 12 10 4 9 6 6 2 3 3 3 3 2 2 4 2 1 1 1 4 7 11 7 8 8 5 1 5 9 8 10 9 10 9 5 7 8 10 8 9 9 7 5 6 7 8 8 6 8 8 8 9 10 7 11 11 11 10 10 9 10 12 11 8 7 5 3 2 2 0 4 5 5 7 6 7 8 8 8 8 7 8
1 1 2 7 4 2 7 6 7 7 4 2 4 3 2 4 7 3 6 6 3 3 4 2 4 7 1 4 7 1 2 5 3 4 9 7 5 5 8 10 8 10 10 11 10 4 4 4 3 4 5 7 7 7 7 7 8 8 8 9 10 8 8 10 11 12 11 9 9 7 8 8 7 7 6 8 8 6 7 8 8 7 7 7 7 6
1 1 3 7 9 6 6 6 5 4 5 3 4 4 2 5 7 8 7 3 3 3 2 3 7 5 2 2 2 1 4 8 3 6 9 5 4 4 6 5 5 6 5 6 7 6 6 6 5 5 6 7 8 7 5 6 7 8 8 9 9 8 8 9 10 12 10 10 10 12 12 11 10 10 9 9 9 9 9 8 9 7 7 8 8 8
4 4 4 2 6 7 6 6 6 8 4 6 2 3 6 9 10 8 8 3 2 3 1 0 1 6 7 6 2 2 5 8 7 7 9 5 3 5 4 4 6 5 4 4 5 4 4 4 5 6 5 6 6 5 6 6 6 8 8 9 9 7 7 8 9 12 10 10 10 11 11 9 10 10 9 9 10 10 7 7 8 6 6 7 8 7
3 6 5 9 5 5 8 1 7 7 5 1 1 2 5 4 4 7 5 3 2 1 3 4 0 3 7 2 2 2 4 7 9 7 4 2 3 3 5 5 6 6 5 6 5 3 2 3 4 3 3 4 5 5 6 6 6 6 7 7 7 7 7 8 10 10 11 10 10 10 9 9 8 9 8 7 7 7 7 8 6 7 7 8 8 9
2 2 4 2 8 8 2 2 2 3 5 1 4 6 7 6 6 3 3 3 2 2 6 5 1 4 11 3 4 2 3 7 8 8 3 2 2 3 4 4 5 4 3 4 5 3 2 0 2 2 2 5 4 4 4 5 5 6 6 8 9 9 8 8 9 9 10 10 8 9 9 10 9 7 6 5 6 6 6 7 8 7 7 8 8 8
2 1 3 1 3 3 6 5 1 3 4 11 7 11 7 6 3 2 4 1 1 4 4 5 2 3 5 2 5 5 6 6 5 3 1 1 2 2 2 3 3 3 2 1 2 2 1 1 2 3 5 5 4 3 4 5 6 8 9 9 10 9 7 7 9 9 10 9 8 8 9 10 9 8 7 6 6 5 5 6 7 7 7 7 7 7
2 1 2 1 1 4 2 8 7 2 6 7 4 6 9 4 1 2 2 1 3 6 3 3 0 3 7 3 4 4 3 3 2 2 2 1 1 2 2 2 2 2 1 1 3 3 3 4 3 4 5 5 5 5 6 7 8 8 8 8 9 9 8 8 8 9 9 8 8 8 9 9 9 8 6 7 8 7 7 8 8 7 7 7 7 7
3 2 1 3 2 1 5 10 4 2 3 1 7 9 7 3 2 3 2 4 7 5 2 2 2 2 13 11 4 3 6 5 7 5 4 2 3 2 1 2 2 2 2 2 3 3 3 4 5 6 6 6 6 6 7 7 7 7 7 9 9 9 9 8 8 9 8 8 8 8 8 7 7 7 8 8 8 7 8 7 8 8 7 7 8 8
2 3 1 2 1 4 4 9 5 3 6 5 11 10 7 4 4 5 2 2 4 1 1 1 1 6 7 7 13 16 9 3 4 7 6 5 6 4 3 3 3 3 2 1 2 3 3 4 4 5 6 6 6 7 7 6 6 6 6 8 8 8 7 7 8 8 8 8 8 7 7 7 6 6 7 7 7 7 6 4 5 5 5 5 5 5
5 4 7 9 5 4 2 3 4 5 11 7 4 6 6 7 4 6 4 6 4 1 2 2 1 4 2 1 3 6 5 2 2 3 3 4 5 5 4 5 5 4 1 1 3 3 4 4 4 4 5 5 6 7 6 6 6 6 6 6 7 7 6 6 7 6 7 6 7 6 6 5 5 5 5 5 5 4 4 4 4 4 4 5 5 5
5 1 3 4 2 2 5 2 1 8 6 1 1 3 2 4 1 1 1 0 2 2 1 2 5 3 5 6 7 5 6 5 5 5 3 7 4 3 4 4 3 2 2 2 4 4 3 3 3 3 3 4 4 5 5 6 6 5 5 5 5 6 7 6 6 6 6 5 5 5 5 5 5 5 4 4 4 3 3 3 3 4 4 4 4 5
3 5 3 0 1 0 1 2 1 2 7 5 4 3 1 4 10 6 2 1 1 1 4 3 5 6 5 9 13 2 1 4 3 4 2 6 2 1 4 3 3 3 3 3 4 3 4 2 1 1 2 3 3 4 5 5 5 6 6 6 6 5 5 6 5 5 4 3 4 4 4 5 5 6 6 4 3 3 2 3 3 4 4 4 5 5
8 4 2 1 3 1 1 1 1 5 3 7 3 5 3 2 2 2 2 1 0 3 2 3 6 7 1 6 3 2 4 9 6 7 6 3 1 4 4 4 4 5 4 3 3 3 2 2 2 2 1 1 3 4 4 5 3 3 4 5 7 6 6 4 4 4 4 4 4 4 5 5 5 4 4 3 2 2 2 2 3 3 3 4 4 5
4 4 2 2 1 1 1 2 4 2 1 2 0 5 4 3 4 1 2 1 3 2 3 4 3 5 6 8 1 1 6 10 7 6 4 5 5 7 6 6 5 3 4 4 5 4 3 3 3 2 2 1 0 0 1 3 3 3 3 3 3 4 3 3 3 3 3 3 3 3 3 4 4 4 3 2 1 1 2 3 3 3 4 5 5 5
1 3 1 1 2 0 2 2 7 4 1 3 2 3 2 2 1 5 3 0 0 3 0 2 2 5 8 7 5 11 8 9 6 6 7 9 8 6 6 6 6 6 6 6 6 5 5 4 4 4 4 3 3 2 2 2 2 4 3 3 3 3 3 3 4 4 4 4 3 3 2 3 3 2 2 2 2 2 2 3 3 3 5 5 5 5
4 1 3 2 2 1 5 6 8 10 9 4 5 5 2 2 2 2 2 1 2 2 3 3 4 3 3 6 8 12 11 3 3 6 4 4 4 3 5 6 7 7 7 7 6 6 6 5 5 4 3 2 1 1 1 2 3 4 3 4 5 6 6 5 4 5 4 4 4 4 4 3 3 2 2 2 2 1 1 1 2 3 4 4 4 5
3 3 5 5 3 7 2 4 3 3 2 4 8 9 9 6 4 4 4 3 0 2 3 3 6 4 2 3 9 9 2 1 4 2 4 5 6 6 4 4 5 6 6 7 6 6 5 5 5 4 3 2 2 2 2 2 3 4 5 5 5 5 5 6 6 5 5 4 4 4 3 3 2 2 1 1 1 0 1 2 2 3 3 4 4 4
3 4 6 6 4 3 1 2 1 2 1 1 2 5 6 5 3 4 7 5 2 1 2 0 2 6 2 2 3 3 0 2 1 3 5 5 6 5 3 4 2 1 3 5 6 5 4 4 4 4 5 5 4 4 4 4 4 5 5 5 5 5 5 4 4 4 4 4 4 4 3 2 2 2 2 2 1 1 1 1 2 2 2 3 4 5
3 4 5 2 3 2 2 2 1 0 1 2 5 1 4 10 9 5 1 4 6 3 1 2 2 6 1 1 3 4 1 3 3 4 7 6 5 5 3 4 3 4 4 2 2 2 3 4 4 4 6 5 5 5 5 5 5 5 4 4 4 5 5 4 3 3 4 4 4 3 3 3 3 3 2 2 1 0 1 1 1 2 2 3 4 5
6 3 7 4 2 1 1 0 1 1 0 4 3 4 1 5 7 3 5 1 1 7 6 5 7 8 3 1 2 2 2 5 6 7 7 6 5 5 4 4 4 5 5 6 7 6 5 5 7 6 5 5 5 5 5 5 5 5 5 4 4 4 3 3 3 4 4 4 5 3 4 4 3 3 3 2 1 1 1 2 2 1 2 3 4 5
5 5 9 6 7 7 7 8 10 9 11 4 1 2 7 10 10 6 5 4 6 3 5 4 10 6 2 2 3 3 2 6 6 3 4 7 6 5 3 3 5 5 7 7 6 6 8 7 5 4 5 4 5 6 6 5 5 5 5 5 3 4 4 4 4 4 4 3 4 4 4 3 3 3 2 2 2 2 2 2 1 1 2 3 4 4
3 2 9 12 14 13 14 14 7 8 7 7 12 15 14 12 9 3 4 3 9 4 7 12 14 9 3 4 6 7 4 9 6 5 6 7 8 7 4 3 4 4 5 8 8 5 5 6 8 7 6 5 5 4 4 5 5 5 5 5 4 3 4 4 5 5 4 4 4 3 3 3 3 2 2 2 2 2 1 1 1 1 2 2 3 3
2 4 11 12 15 15 14 12 9 16 14 14 14 11 11 12 13 12 11 12 8 7 8 11 14 15 13 8 9 9 8 7 5 5 6 6 7 7 5 3 3 4 4 3 5 8 10 9 7 7 7 6 5 5 4 4 4 4 4 5 4 4 4 3 5 5 5 4 4 3 3 3 3 2 2 2 2 1 1 0 0 1 1 2 2 2
5 8 11 12 15 15 3 6 8 9 12 11 15 13 15 15 14 15 16 16 9 10 14 18 19 19 16 14 12 9 9 9 12 9 3 1 1 3 4 6 6 6 5 6 9 9 9 11 10 9 8 7 6 6 6 5 5 4 4 4 4 4 5 4 5 5 5 4 3 3 3 3 3 2 2 2 2 2 2 1 1 1 1 1 1 1
2 5 5 8 13 12 4 5 3 10 6 4 10 12 14 15 17 19 18 15 14 14 16 20 17 16 16 10 16 11 10 7 2 4 2 4 8 8 5 6 6 7 9 11 12 11 11 8 8 8 8 8 8 7 6 6 5 4 5 5 4 5 4 4 5 5 4 3 3 3 3 3 2 1 1 2 2 2 1 1 0 0 0 0 1 1
6 2 5 5 4 10 6 2 1 4 9 10 3 8 11 12 11 14 14 15 14 13 14 18 18 15 11 8 10 4 4 5 3 4 7 8 5 7 8 8 8 8 10 11 9 9 8 6 5 5 7 9 9 9 7 6 6 5 4 5 5 5 4 5 6 5 4 4 3 3 4 3 2 2 3 3 3 2 2 2 1 1 1 1 1 0
4 2 2 3 4 8 5 10 6 3 1 2 5 8 12 14 14 13 15 17 15 19 22 19 15 12 18 7 8 7 6 7 7 7 5 5 8 9 9 9 9 10 10 11 10 8 8 8 10 11 11 9 8 8 8 8 7 6 6 6 5 5 5 6 6 5 4 4 4 4 4 3 3 3 3 3 3 2 2 2 2 2 2 2 2 2
7 4 4 4 5 10 2 8 8 5 3 1 6 12 18 18 18 18 16 16 14 16 14 11 15 19 4 9 7 7 9 8 7 8 8 8 9 10 10 11 11 10 10 10 10 10 10 11 11 9 6 5 5 5 5 6 7 6 7 7 6 6 6 6 6 5 5 4 4 4 3 2 3 3 2 2 2 2 2 2 2 2 2 3 3 3
3 7 4 4 5 3 3 5 6 6 10 11 12 19 19 20 21 14 14 17 18 16 12 15 14 3 8 6 11 10 13 13 12 13 13 11 8 9 10 8 9 9 9 8 9 9 6 3 4 5 6 6 5 5 6 5 6 6 6 7 7 7 6 6 5 5 5 4 4 3 2 2 1 2 3 3 3 4 3 3 3 3 3 2 3 3
10 7 5 2 4 2 3 7 4 10 12 13 5 6 15 13 12 15 15 18 15 14 14 15 14 16 8 7 11 10 11 12 11 9 8 5 3 8 11 11 12 13 15 12 10 9 10 9 6 7 8 8 8 7 7 6 6 7 7 7 7 5 6 5 6 5 5 5 4 3 2 1 2 3 3 4 3 3 3 3 2 2 2 2 2 2
9 9 3 1 2 4 2 5 7 8 5 1 1 5 8 12 13 15 17 18 19 18 16 16 18 18 14 11 4 3 1 2 6 6 9 9 8 8 9 11 13 14 15 14 15 12 12 13 13 12 10 8 8 7 6 7 7 8 8 6 6 6 5 5 5 6 5 5 4 3 3 3 3 3 3 4 3 3 2 2 2 2 2 2 2 2
12 7 5 4 3 5 5 10 6 7 8 4 6 5 12 13 12 15 10 15 13 9 10 15 19 20 16 8 8 5 3 1 5 9 10 11 11 11 13 15 16 15 15 13 8 8 6 7 8 8 9 9 8 8 8 7 7 8 8 7 6 5 5 5 6 5 5 4 4 3 3 3 3 2 2 2 2 2 1 2 2 2 1 2 2 2
4 10 8 9 3 4 3 2 1 4 11 8 12 2 3 4 9 13 13 13 11 15 18 19 20 20 16 6 9 6 5 3 7 12 14 13 13 14 14 11 2 1 3 4 4 6 9 8 8 8 9 10 9 7 8 8 8 8 8 7 6 5 5 5 6 5 4 4 3 3 2 2 2 1 2 2 2 2 2 2 1 1 2 2 2 2
3 3 4 8 3 4 4 6 5 10 13 14 7 5 7 10 11 8 5 11 15 14 16 17 16 15 13 8 10 9 6 5 11 13 16 7 12 13 14 11 7 5 5 7 9 10 10 10 11 11 10 10 10 8 8 9 9 8 8 7 6 5 6 6 5 4 4 3 3 2 2 2 2 2 2 3 3 3 3 2 2 2 2 2 2 3
4 3 3 5 5 5 8 9 9 4 9 8 6 8 9 11 14 11 6 9 21 11 10 11 17 17 13 10 15 13 12 10 11 13 2 7 6 6 9 11 8 6 5 5 5 8 10 12 13 11 11 10 9 9 10 9 7 6 7 6 5 6 6 5 4 3 3 2 2 2 2 2 2 2 2 3 3 3 3 3 2 3 3 3 2 3
5 1 4 10 9 7 10 5 3 5 5 5 7 7 12 16 15 11 13 12 1 14 14 16 14 14 14 12 10 9 12 15 12 0 4 3 6 3 4 4 5 6 9 9 9 11 11 9 9 9 9 8 9 9 8 7 8 8 7 6 6 6 4 3 3 3 2 2 2 2 2 2 2 3 3 3 3 3 3 3 3 3 3 4 2 2
5 5 3 5 9 10 8 10 8 6 5 6 1 13 15 10 9 14 9 2 9 9 12 15 14 13 12 11 11 11 13 13 8 3 4 3 3 5 5 7 8 8 8 8 10 10 10 9 10 10 9 7 7 8 7 6 8 8 6 6 6 5 3 2 2 2 2 2 1 1 2 2 3 2 2 3 2 2 3 3 3 3 3 2 3 3
11 9 8 9 5 4 3 5 6 11 7 13 15 4 7 9 6 7 4 2 1 4 9 7 8 8 9 9 13 14 15 9 6 6 4 5 6 6 8 8 9 10 11 12 10 8 11 11 10 9 9 7 7 6 5 7 8 7 6 6 5 3 2 2 2 2 1 1 0 0 1 2 3 2 2 2 3 3 3 3 3 3 2 3 4 3
13 8 5 8 10 8 11 11 9 13 4 14 17 12 10 8 2 1 5 5 3 2 6 5 7 6 9 12 12 12 13 7 2 4 5 5 5 6 5 6 7 9 9 8 9 9 8 11 10 10 8 7 6 6 5 5 7 6 7 6 3 2 2 2 2 1 1 0 0 1 2 3 2 2 3 4 4 3 2 3 3 2 1 3 3 3
13 14 13 13 10 11 7 10 8 2 10 6 2 2 10 11 3 2 3 3 4 3 2 3 3 2 5 7 5 2 5 6 4 5 6 7 7 7 8 8 9 9 10 11 10 8 7 10 12 11 10 7 8 6 6 5 6 7 6 4 3 3 2 1 1 1 1 1 1 2 2 1 1 3 5 4 3 3 3 4 5 4 3 3 3 3
2 3 3 3 6 7 3 2 2 1 2 2 1 1 3 1 2 1 3 2 2 2 4 4 5 3 3 4 6 4 5 5 6 6 5 7 7 7 7 8 8 8 9 10 9 8 9 10 10 11 11 9 8 7 6 6 5 7 5 3 3 3 2 1 1 2 2 2 2 2 3 3 4 4 3 3 2 2 2 3 4 4 4 3 3 3
3 2 3 7 2 9 10 7 9 5 1 2 3 1 2 2 3 2 2 3 3 4 3 4 5 5 5 4 7 7 6 7 8 7 8 8 9 9 10 10 9 10 11 10 9 10 10 9 9 10 11 11 7 7 6 7 6 5 4 4 3 2 1 2 2 2 2 2 2 3 4 2 2 1 3 4 4 3 3 4 4 4 3 4 4 4
5 5 5 3 5 12 7 7 3 2 2 2 3 4 4 6 5 5 2 1 1 2 3 4 4 3 4 5 9 8 8 7 8 9 8 8 9 9 9 9 10 9 7 9 9 8 8 7 9 11 10 10 7 6 6 5 5 5 4 3 3 2 2 2 2 2 3 4 2 1 2 2 6 6 4 4 4 4 4 3 3 3 3 4 4 5
0 5 6 4 6 2 5 4 4 2 4 7 5 6 5 2 4 4 3 2 3 3 3 2 3 4 6 7 6 8 9 8 7 10 10 9 9 9 9 9 9 10 10 10 8 7 7 8 9 10 10 9 8 6 5 5 4 4 4 3 2 2 3 2 4 4 3 1 1 3 4 4 5 4 4 3 3 3 2 3 3 3 3 2 2 4
2 5 1 3 3 6 10 8 6 3 5 4 7 11 10 7 5 4 3 4 6 7 6 6 3 2 4 4 7 9 9 8 9 10 10 10 10 12 12 11 10 11 10 9 9 9 9 8 10 11 10 9 7 6 5 5 4 3 3 3 3 3 3 2 2 2 2 3 3 4 4 4 4 4 4 4 4 4 3 2 3 4 4 4 6 8
8 5 3 3 6 9 8 5 4 5 4 3 6 6 7 9 7 9 11 11 9 7 7 8 7 2 3 3 3 8 10 10 13 12 11 10 10 10 11 13 13 12 12 12 12 11 10 9 10 10 10 9 8 7 5 5 4 3 3 3 3 3 2 1 1 2 3 3 4 5 4 4 4 4 4 4 4 4 4 4 2 2 4 5 6 7
Wind_Direction
348 170 189 196 192 178 191 214 337 90 162 78 66 112 157 180 123 58 107 40 264 237 229 228 245 266 265 262 264 261 191 245 253 256 252 248 237 228 226 227 230 230 238 132 198 216 207 207 205 204 204 208 209 209 207 205 207 204 204 203 210 210 212 213 213 215 216 215 217 222 221 217 220 215 207 206 208 211 207 193 202 211 215 201 193 196
199 204 208 189 174 179 151 96 116 84 112 165 161 178 165 246 181 71 98 61 59 244 191 73 264 260 258 257 257 263 259 259 245 247 244 244 238 231 226 235 229 236 248 219 240 220 207 211 198 193 199 197 200 208 203 206 206 203 202 202 204 201 208 212 213 210 211 213 218 218 223 220 213 209 206 213 217 219 217 204 192 201 194 189 190 190
196 213 187 119 105 90 92 107 47 129 131 104 186 177 165 196 43 138 101 116 56 210 247 101 274 265 254 249 247 238 240 248 239 237 248 243 235 228 226 238 244 241 253 238 228 216 209 199 202 198 201 203 211 206 201 205 201 200 199 202 198 198 201 211 211 209 211 211 212 218 225 218 221 226 226 226 227 228 230 230 224 204 197 194 195 192
197 221 120 116 135 124 85 131 114 91 80 151 134 172 206 119 176 201 147 142 46 307 347 349 299 278 266 241 240 237 232 248 256 268 266 252 246 237 230 230 244 248 252 257 235 223 201 197 202 203 208 205 198 195 195 195 197 195 200 199 196 197 200 208 209 211 213 211 210 215 227 228 239 237 232 241 243 243 238 235 224 222 216 207 205 203
183 27 21 150 170 160 156 168 159 171 183 304 241 176 146 155 220 4 134 130 162 149 283 266 272 274 237 245 239 179 300 282 268 265 255 243 235 247 276 279 246 248 248 262 263 224 212 230 223 210 207 192 196 202 197 191 192 194 196 193 192 194 198 204 203 203 205 192 181 165 103 108 125 110 211 206 217 215 220 232 225 221 214 214 210 209
174 67 140 137 146 121 137 169 199 174 196 177 247 234 188 180 145 103 114 154 188 211 65 353 277 261 111 238 243 279 297 242 193 249 255 240 222 213 237 241 236 234 238 246 255 245 197 224 230 202 195 196 200 200 198 189 190 189 186 186 184 190 191 203 202 196 195 188 179 165 178 193 204 214 207 211 213 209 214 217 224 229 214 209 206 204
87 110 223 162 156 150 169 188 180 200 180 173 206 170 152 153 133 133 141 182 212 239 73 326 234 265 93 286 171 0 300 280 208 221 255 246 224 231 242 248 238 233 223 227 251 255 241 224 218 216 199 199 200 199 172 173 187 188 185 181 183 187 188 196 196 193 186 186 199 199 205 209 211 219 226 228 229 230 229 227 226 220 220 220 218 215
126 131 142 109 122 155 157 198 193 183 133 211 58 169 127 137 148 165 157 214 38 40 139 228 337 270 290 256 37 351 292 278 272 226 230 236 241 244 252 258 262 257 235 237 238 236 245 228 202 202 187 190 195 166 164 178 183 184 181 176 182 185 184 189 190 189 186 191 198 203 207 211 218 221 230 228 231 232 234 229 223 221 226 224 224 222
150 149 192 155 172 157 194 167 125 196 175 227 182 266 131 134 111 127 151 126 50 298 225 155 331 274 246 265 115 2 286 260 260 256 192 184 234 262 272 274 273 274 263 246 248 248 241 204 187 190 173 169 154 155 171 174 170 169 169 173 178 184 184 188 181 179 187 193 197 201 206 216 222 228 233 237 232 231 228 227 228 232 237 241 236 235
330 199 199 161 159 189 74 4 333 187 156 229 141 100 98 91 77 88 120 119 158 199 246 153 359 252 274 203 227 79 275 262 254 248 149 221 228 273 289 290 287 287 272 238 239 246 275 175 125 122 106 139 140 138 141 134 144 157 166 176 178 181 185 180 176 179 185 193 194 199 206 214 218 221 230 228 229 231 233 235 232 235 240 240 241 236
314 359 264 78 227 49 122 53 98 358 69 133 185 108 92 65 68 83 54 54 169 243 235 52 338 283 292 216 219 194 220 233 239 277 315 206 199 211 244 278 298 303 288 230 180 189 183 65 97 130 138 123 111 118 139 144 155 164 172 174 176 176 175 171 173 177 179 185 191 200 205 210 215 215 222 226 227 224 230 236 238 239 243 243 243 240
61 50 143 57 24 136 110 91 39 70 125 154 148 128 111 67 115 98 84 324 221 242 77 341 342 293 219 256 238 271 329 259 245 208 171 184 10 343 352 354 332 309 290 174 155 138 136 133 122 137 134 136 130 139 145 156 162 167 167 167 165 167 171 168 167 171 174 183 194 205 208 214 219 220 216 223 229 225 227 234 244 250 256 256 255 252
86 119 25 22 266 214 160 102 73 101 261 211 147 153 158 151 156 191 185 216 212 240 84 23 256 242 237 241 319 259 272 248 217 237 248 270 289 325 342 16 335 311 288 165 135 137 151 151 149 151 141 139 152 155 155 155 160 161 163 165 158 165 170 168 167 172 177 186 195 201 207 215 222 226 232 240 244 242 242 240 243 251 257 265 264 259
139 137 328 18 148 227 243 147 138 175 208 194 169 163 163 158 172 210 183 352 334 17 31 72 84 266 293 281 238 251 252 231 205 234 244 251 260 285 321 339 322 312 301 80 121 134 149 154 152 149 153 157 148 149 152 152 155 156 160 165 164 152 159 158 169 175 180 191 196 202 208 216 218 225 232 239 246 244 240 230 230 234 239 250 251 254
157 241 207 160 184 121 207 304 183 163 162 203 7 178 187 173 161 188 173 197 206 146 91 238 190 233 190 190 29 276 346 276 304 276 278 273 272 281 300 293 278 273 207 152 135 147 153 160 158 158 159 153 153 151 151 157 157 158 160 165 158 143 152 156 163 171 179 182 190 196 205 210 215 226 228 233 229 230 232 237 241 247 246 248 256 259
212 78 27 358 327 7 184 279 337 99 52 16 228 28 148 212 185 187 62 17 121 145 157 188 232 271 230 359 268 221 267 264 238 272 262 266 238 240 266 249 232 196 153 146 140 137 140 141 152 149 153 149 147 156 155 160 158 161 156 155 150 150 154 164 166 172 177 176 172 181 192 204 214 223 228 227 218 224 234 250 255 261 257 261 265 261
40 208 23 349 159 349 3 312 269 293 180 185 135 205 167 15 99 113 84 66 348 5 245 143 266 260 262 267 266 135 330 267 176 232 238 253 222 194 237 199 180 169 153 148 148 142 136 136 142 119 137 145 153 166 176 168 165 164 153 156 157 151 153 166 170 164 166 159 170 185 192 201 209 217 220 222 219 225 229 256 263 261 267 273 270 271
171 117 17 346 148 34 325 304 13 57 307 104 221 173 143 212 105 126 186 99 45 235 247 111 235 261 326 286 60 307 221 247 231 235 229 242 164 225 211 176 170 168 152 113 108 100 100 106 123 132 157 187 174 169 167 161 157 157 157 164 155 153 156 155 153 161 165 172 182 180 191 204 212 215 218 225 233 233 235 242 251 257 263 261 271 275
123 104 111 332 0 314 106 279 100 32 38 297 160 142 168 166 204 257 118 193 174 224 260 207 270 271 233 239 59 246 219 250 215 208 212 221 204 214 194 162 151 127 131 151 150 151 156 159 161 163 163 145 353 48 120 129 146 154 141 115 114 127 119 136 152 161 163 184 175 179 188 198 205 214 212 211 225 244 250 253 261 268 275 279 275 269
331 141 111 74 138 122 293 231 189 167 31 76 171 131 334 285 330 160 201 48 202 236 83 255 118 258 180 222 208 248 238 234 229 169 208 207 197 197 175 154 160 170 170 160 162 161 160 157 155 159 155 161 171 169 161 148 146 135 111 116 118 103 131 142 160 168 176 179 177 166 178 199 212 206 202 203 210 220 230 253 264 273 274 273 277 275
159 311 147 124 303 176 182 207 211 169 163 136 174 168 159 38 296 5 36 165 216 200 205 276 259 235 189 206 204 225 233 199 223 219 212 198 200 192 174 168 169 178 172 167 162 159 157 155 154 155 151 125 100 72 124 148 137 118 123 147 161 165 161 165 166 174 174 162 164 169 188 187 190 189 184 187 198 226 249 283 285 281 283 287 278 288
111 216 163 126 136 219 191 26 328 297 256 190 167 183 178 134 142 174 213 80 1 203 215 180 258 264 207 133 207 224 253 155 230 245 227 223 209 203 182 207 176 172 171 158 153 152 149 149 147 136 124 111 129 134 139 121 121 137 153 157 155 147 155 157 166 172 154 153 151 166 166 165 159 148 136 152 108 294 328 299 285 286 289 286 295 293
117 96 103 168 200 173 342 15 331 320 350 231 308 214 172 190 133 186 208 185 93 40 50 355 346 271 103 139 241 265 27 250 282 277 251 241 247 234 211 205 203 275 150 157 154 160 161 150 142 142 147 154 152 140 144 156 157 151 148 147 156 147 145 154 147 142 141 136 139 141 134 128 116 97 88 69 59 19 291 292 280 289 293 304 298 278
87 109 93 36 47 315 327 249 184 257 352 276 255 247 168 198 201 212 259 131 167 122 177 195 247 263 60 146 237 251 264 297 259 240 254 265 257 252 200 179 190 201 214 200 177 190 170 149 139 147 152 151 156 159 161 154 144 137 131 136 139 129 128 125 122 126 118 113 111 121 125 112 101 98 97 109 107 166 280 287 306 346 332 297 276 267
166 216 128 131 99 106 329 111 225 89 188 228 225 165 245 48 70 91 102 31 207 200 186 186 239 260 141 242 242 252 233 244 240 216 213 249 264 259 227 181 191 200 186 194 193 181 162 160 171 173 161 155 152 154 156 151 141 133 125 122 110 99 93 96 107 107 102 114 117 110 103 96 101 94 100 92 98 54 24 14 358 358 298 276 262 259
193 151 146 159 163 172 189 196 200 205 204 177 61 147 178 184 150 143 181 167 226 169 161 215 242 235 82 279 258 224 228 257 229 208 197 224 251 254 240 203 202 198 198 188 172 167 180 174 155 149 161 158 166 162 153 140 128 115 104 91 81 98 104 94 89 87 94 97 103 95 87 82 77 74 68 58 49 37 24 16 329 288 265 253 258 260
160 144 191 183 192 204 207 209 201 89 86 176 206 178 192 199 181 160 51 123 213 183 183 221 231 250 159 201 211 225 199 226 212 198 213 214 233 247 252 223 201 208 194 186 187 177 140 163 182 171 166 168 159 150 133 126 119 115 112 100 90 82 90 86 89 93 94 88 86 88 79 72 65 52 53 50 42 35 23 358 291 259 251 243 248 258
101 177 203 201 217 219 216 211 146 162 172 197 189 185 180 178 182 186 188 212 186 90 234 239 237 250 232 175 207 207 206 230 243 232 219 199 208 216 203 192 202 193 216 224 178 180 190 183 172 175 171 162 155 139 127 117 118 123 119 115 108 100 92 88 97 98 96 91 88 87 81 72 62 55 57 58 61 65 57 27 242 244 250 239 245 247
170 206 208 201 218 220 50 128 159 188 197 197 199 175 173 178 178 189 211 222 139 200 225 230 222 234 242 186 205 197 203 206 214 217 179 161 196 194 192 197 194 202 195 205 213 203 187 184 188 176 169 161 151 152 143 139 133 125 113 109 112 105 95 104 107 100 93 89 101 97 83 74 57 43 63 62 66 57 40 24 348 330 291 292 290 301
139 231 188 187 217 222 137 158 166 178 178 150 191 179 182 172 184 195 210 208 188 216 227 243 238 233 242 176 210 203 209 226 218 63 130 180 205 202 202 218 210 196 200 209 212 207 203 198 173 174 164 162 166 159 154 147 146 144 137 129 115 106 109 113 105 106 105 108 110 104 90 83 76 94 117 125 120 115 118 157 127 221 349 4 0 349
187 227 113 135 214 237 194 126 154 210 162 190 122 168 167 180 196 210 218 220 219 246 252 250 251 261 255 164 206 138 96 88 110 194 204 217 205 185 206 217 218 212 210 215 218 212 205 182 186 180 181 176 170 166 157 148 140 135 124 116 114 116 121 120 118 116 122 131 134 123 110 110 137 177 168 150 135 134 147 142 169 145 116 113 54 1
181 217 55 122 205 238 174 181 166 95 56 131 141 165 176 177 198 207 216 210 199 215 229 241 255 257 257 135 166 162 152 164 193 210 219 222 216 208 210 219 219 221 217 211 212 209 197 199 190 194 197 183 170 160 155 149 146 143 134 125 125 126 130 129 128 132 140 143 135 119 115 128 171 182 162 141 127 131 122 120 120 90 75 50 33 7
182 154 161 167 201 231 153 176 133 132 96 246 213 196 189 198 200 206 214 216 211 212 223 222 229 237 102 134 149 198 189 202 201 211 215 230 223 208 210 217 220 224 223 209 203 206 210 203 200 186 160 147 160 152 139 133 137 138 133 133 131 130 139 138 136 141 143 133 117 109 111 161 187 174 136 100 89 80 68 62 53 43 27 25 3 345
159 185 188 170 209 182 49 116 136 137 214 219 205 201 178 194 202 196 208 214 216 206 219 217 238 255 108 175 169 191 198 205 205 215 214 216 192 197 218 232 234 236 241 224 205 213 218 211 188 173 162 154 139 127 124 131 126 120 118 121 130 137 137 140 140 136 122 109 102 101 121 163 180 118 75 57 46 45 43 37 37 18 13 358 354 356
179 191 195 144 204 180 142 128 142 215 229 229 240 173 200 205 180 201 221 222 219 220 240 257 262 260 198 190 195 196 199 209 220 234 244 273 168 189 203 206 217 222 222 211 200 200 197 190 175 160 161 161 153 142 139 134 124 122 121 129 129 131 136 137 130 114 106 100 92 92 81 63 46 49 46 41 39 36 36 29 16 7 2 355 346 343
176 184 134 190 126 60 146 175 213 226 223 338 138 183 185 191 202 206 233 228 218 209 211 232 244 245 235 207 133 45 113 330 327 272 246 240 209 205 197 212 217 218 224 210 198 192 180 183 183 175 165 142 139 145 147 141 139 134 127 125 125 130 132 127 113 101 95 90 76 64 43 33 31 35 38 35 35 36 27 21 5 347 345 337 330 325
177 154 168 183 194 191 172 201 228 10 338 207 211 187 172 187 181 190 215 242 221 205 206 230 239 243 241 230 107 131 78 35 305 271 235 221 232 225 221 224 218 217 221 226 205 192 154 147 151 146 130 140 147 146 144 139 138 130 128 127 124 130 125 113 96 89 82 78 62 46 31 22 24 28 30 26 23 25 17 0 342 335 340 314 307 303
218 179 187 198 207 186 156 201 228 237 246 232 220 66 172 152 168 185 205 253 233 195 204 212 228 236 237 137 124 134 114 166 258 255 240 220 220 229 233 238 276 77 196 120 106 125 145 144 126 131 144 141 140 135 132 138 137 133 128 126 130 125 107 91 87 78 72 67 51 31 20 10 8 18 17 19 12 352 347 341 321 312 325 309 306 303
6 17 197 202 157 162 203 210 199 214 231 237 217 146 160 169 149 136 186 246 245 204 199 207 227 238 237 185 149 136 174 215 241 246 254 199 212 221 234 231 197 174 170 167 161 150 145 141 140 136 129 135 135 137 135 133 132 130 124 124 120 106 94 84 80 71 66 57 40 20 5 2 1 10 5 10 356 344 323 312 322 320 316 305 293 286
160 187 147 211 207 194 194 210 221 202 238 241 160 169 158 129 118 117 194 240 245 206 176 195 217 229 229 179 166 185 195 224 235 250 341 142 188 195 222 214 170 146 123 115 95 117 121 122 122 132 141 141 134 131 135 134 130 118 115 113 109 97 88 84 73 65 56 48 30 19 2 356 3 5 9 359 340 332 312 311 319 332 325 311 294 296
180 182 200 203 204 199 202 238 268 270 254 230 158 136 148 143 141 176 206 228 121 132 187 199 211 214 218 199 165 194 217 217 237 24 98 101 105 85 50 62 105 126 139 133 127 124 123 127 126 126 124 119 127 131 130 133 125 116 110 112 102 91 86 76 73 60 60 50 36 17 356 354 10 356 355 1 339 318 311 324 331 324 311 292 292 294
185 162 192 198 209 204 201 214 229 266 239 140 302 156 157 132 200 209 214 114 149 174 184 197 204 210 212 194 189 211 226 228 237 116 129 110 96 106 102 108 108 95 84 105 123 123 119 110 106 104 100 106 117 123 129 131 117 111 114 106 93 93 76 71 64 64 62 64 35 5 352 354 347 352 350 334 318 319 326 333 315 295 288 309 301 291
176 176 187 191 194 233 214 229 227 246 235 150 110 33 243 201 206 194 145 231 47 168 172 199 202 207 183 197 203 214 232 228 209 203 125 133 129 143 141 144 139 136 137 135 131 118 122 118 116 109 107 104 105 111 116 120 111 109 108 96 92 77 63 50 48 52 86 76 62 19 11 356 350 339 329 346 357 358 329 321 318 283 273 312 306 310
159 198 175 211 186 186 192 200 209 219 246 131 154 203 185 230 55 187 152 185 203 158 160 158 201 209 192 201 202 214 226 215 148 113 118 116 112 117 119 117 116 118 118 111 119 124 108 108 107 107 98 91 87 94 97 118 114 114 104 92 70 61 54 48 28 71 124 156 317 11 27 6 327 319 11 14 6 345 313 325 301 292 10 332 328 338
169 205 180 203 182 207 200 216 210 29 156 186 224 356 192 176 104 170 77 75 148 189 159 141 141 230 241 245 278 233 217 215 173 146 148 152 141 144 142 142 139 138 133 131 129 116 108 118 120 113 103 93 85 74 64 67 106 107 94 73 58 33 38 8 321 165 113 84 39 35 25 313 354 29 28 6 1 344 338 337 349 357 353 347 345 353
358 232 42 193 220 209 302 156 12 110 237 254 204 357 336 63 156 130 168 154 206 135 171 156 157 183 208 198 206 234 209 145 144 154 129 137 138 132 123 121 116 114 111 112 117 113 111 110 109 114 111 98 85 79 66 57 68 85 78 65 47 34 63 328 166 113 89 60 46 36 32 23 42 37 28 7 358 358 359 352 354 355 341 350 352 356
233 149 180 203 125 169 229 211 216 194 162 230 197 245 298 287 229 186 182 216 145 164 180 193 176 183 185 177 204 194 165 163 150 153 149 144 147 148 146 141 137 138 137 134 130 122 124 123 117 119 118 111 98 84 77 73 68 71 73 64 49 40 40 94 91 91 71 45 44 26 31 34 37 1 32 24 17 11 10 8 357 344 343 356 356 355
240 176 196 196 171 201 226 204 206 157 221 204 180 169 221 213 216 216 224 264 153 181 183 188 175 191 169 188 198 173 170 169 152 155 156 156 150 149 145 143 139 128 115 118 128 126 118 118 119 125 117 113 109 98 84 78 75 72 73 71 55 36 94 93 81 83 63 47 45 50 40 38 29 28 27 18 13 11 8 3 351 339 348 357 356 351
190 128 200 171 198 272 4 263 213 238 223 220 223 253 246 221 178 200 203 175 177 161 165 165 211 203 186 196 161 149 147 184 168 155 149 149 147 151 150 141 136 130 129 128 127 121 128 123 121 125 121 117 115 106 94 84 84 69 63 63 56 78 107 102 96 97 99 109 68 44 32 34 30 23 16 6 14 8 353 348 333 337 325 333 350 340
74 193 205 115 187 220 220 214 142 181 218 175 216 217 216 212 188 175 161 206 199 193 183 170 182 246 226 202 178 166 167 158 165 155 155 158 157 148 143 138 134 132 127 126 128 126 116 117 128 126 120 120 118 111 100 91 77 64 56 44 40 53 102 131 129 120 75 57 54 45 35 31 27 20 17 7 358 345 337 305 298 314 336 327 340 336
196 200 144 177 194 226 238 236 180 255 324 179 167 184 185 178 178 183 198 203 204 201 181 160 151 167 202 224 230 184 165 160 165 158 151 155 152 150 146 144 145 148 150 147 136 134 132 129 134 128 123 124 122 114 108 99 83 72 52 43 31 50 63 66 176 126 84 57 49 35 31 27 24 17 11 2 353 344 334 332 304 281 346 355 334 329